カタログに戻る

CZ-6A DEB

運用中PO
NORAD 54393·DEBRIS·🇨🇳 China

打ち上げ Nov 11, 2022 から Taiyuan Satellite Launch Center

Loading…

次のパス (今後24時間)

TLE

最新Source: Space-Track

元期: Sep 14, 2026, 06:57 UTC

1 54393U 22151DR  26257.28980521  .00000261  00000-0  29244-3 0  9995
2 54393  98.4967 100.7644 0315308  33.9312 328.1569 13.58717938190097

AllMySatでCZ-6A DEBをリアルタイム追跡

Download on the App Store